• In Moldova, Republic
  • List of Countries
  • For 7 days
  • Water Temperature
  • Satellite Maps
  • Weather Map
  • Weather Widgets
  • user-avatar
    Login

    Hourly Weather Carevo

    Today, 24 October, Wednesday

    Time Temperature Precipitation Wind Pressure Humidity
    00:00 +3°C° 0 mm 5 mps 730 mmHg 82%
    01:00 +3°C° 0.1 mm 5 mps 730 mmHg 81%
    02:00 +3°C° 0.1 mm 5 mps 729 mmHg 81%
    03:00 +3°C° 0.1 mm 5 mps 728 mmHg 80%
    04:00 +3°C° 0.2 mm 5 mps 727 mmHg 80%
    05:00 +3°C° 0.2 mm 5 mps 726 mmHg 80%
    06:00 +3°C° 0.2 mm 5 mps 726 mmHg 80%
    07:00 +3°C° 0.1 mm 6 mps 725 mmHg 80%
    08:00 +4°C° 0.1 mm 6 mps 725 mmHg 79%
    09:00 +4°C° 0.1 mm 6 mps 724 mmHg 79%
    10:00 +4°C° 0.3 mm 6 mps 724 mmHg 80%
    11:00 +5°C° 0.3 mm 6 mps 723 mmHg 80%
    12:00 +5°C° 0.3 mm 6 mps 723 mmHg 81%
    13:00 +6°C° 0.1 mm 5 mps 722 mmHg 81%
    14:00 +6°C° 0.1 mm 4 mps 722 mmHg 81%
    15:00 +7°C° 0.1 mm 4 mps 721 mmHg 81%
    16:00 +7°C° 0.3 mm 3 mps 721 mmHg 84%
    17:00 +7°C° 0.3 mm 3 mps 721 mmHg 87%
    18:00 +7°C° 0.3 mm 3 mps 720 mmHg 90%
    19:00 +5°C° 0.6 mm 3 mps 721 mmHg 90%
    20:00 +5°C° 0.6 mm 4 mps 721 mmHg 91%
    21:00 +5°C° 0.6 mm 4 mps 721 mmHg 91%
    22:00 +5°C° 0.1 mm 4 mps 721 mmHg 92%
    23:00 +4°C° 0.1 mm 4 mps 721 mmHg 93%

    Tomorrow, 25 October, Thursday

    Time Temperature Precipitation Wind Pressure Humidity
    00:00 +4°C° 0.1 mm 4 mps 721 mmHg 93%
    01:00 +4°C° 0 mm 3 mps 721 mmHg 94%
    02:00 +3°C° 0 mm 3 mps 721 mmHg 95%
    03:00 +3°C° 0 mm 3 mps 721 mmHg 95%
    04:00 +4°C° 0 mm 2 mps 721 mmHg 96%
    05:00 +3°C° 0 mm 2 mps 721 mmHg 96%
    06:00 +3°C° 0 mm 2 mps 721 mmHg 96%
    07:00 +3°C° 0 mm 2 mps 721 mmHg 95%
    08:00 +4°C° 0 mm 2 mps 721 mmHg 93%
    09:00 +4°C° 0 mm 2 mps 721 mmHg 92%
    10:00 +4°C° 0 mm 2 mps 721 mmHg 89%
    11:00 +4°C° 0 mm 3 mps 721 mmHg 86%
    12:00 +5°C° 0 mm 3 mps 721 mmHg 83%
    13:00 +4°C° 0.3 mm 4 mps 721 mmHg 83%
    14:00 +4°C° 0.3 mm 4 mps 721 mmHg 83%
    15:00 +3°C° 0.3 mm 5 mps 722 mmHg 83%
    16:00 +3°C° 0.5 mm 6 mps 722 mmHg 82%
    17:00 +2°C° 0.5 mm 6 mps 722 mmHg 82%
    18:00 +2°C° 0.5 mm 7 mps 723 mmHg 82%
    19:00 +2°C° 0.4 mm 7 mps 723 mmHg 81%
    20:00 0°C° 0.4 mm 7 mps 724 mmHg 81%
    21:00 0°C° 0.4 mm 7 mps 725 mmHg 81%
    22:00 +1°C° 0.1 mm 6 mps 725 mmHg 81%
    23:00 -1°C° 0.1 mm 6 mps 726 mmHg 81%

    Day after tomorrow, 26 October, Friday

    Time Temperature Precipitation Wind Pressure Humidity
    00:00 0°C° 0.1 mm 5 mps 726 mmHg 81%
    01:00 0°C° 0 mm 5 mps 727 mmHg 80%
    02:00 0°C° 0 mm 5 mps 727 mmHg 79%
    03:00 0°C° 0 mm 5 mps 728 mmHg 78%
    04:00 -1°C° 0 mm 4 mps 728 mmHg 80%
    05:00 -1°C° 0 mm 4 mps 729 mmHg 81%
    06:00 -1°C° 0 mm 4 mps 729 mmHg 82%
    07:00 0°C° 0 mm 4 mps 730 mmHg 82%
    08:00 0°C° 0 mm 4 mps 730 mmHg 82%
    09:00 0°C° 0 mm 5 mps 731 mmHg 82%
    10:00 +1°C° 0 mm 5 mps 731 mmHg 78%
    11:00 +2°C° 0 mm 5 mps 731 mmHg 73%
    12:00 +2°C° 0 mm 5 mps 731 mmHg 68%
    13:00 +2°C° 0 mm 5 mps 732 mmHg 68%
    14:00 +3°C° 0 mm 5 mps 732 mmHg 67%
    15:00 +3°C° 0 mm 5 mps 732 mmHg 67%
    16:00 +2°C° 0.1 mm 5 mps 732 mmHg 70%
    17:00 +2°C° 0.1 mm 5 mps 732 mmHg 74%
    18:00 +3°C° 0.1 mm 4 mps 733 mmHg 77%
    19:00 +1°C° 0.1 mm 4 mps 733 mmHg 80%
    20:00 +1°C° 0.1 mm 4 mps 733 mmHg 83%
    21:00 +1°C° 0.1 mm 4 mps 734 mmHg 86%
    22:00 +1°C° 0 mm 4 mps 734 mmHg 88%
    23:00 0°C° 0 mm 4 mps 735 mmHg 90%

    27 October, Saturday

    Time Temperature Precipitation Wind Pressure Humidity
    00:00 0°C° 0 mm 4 mps 735 mmHg 91%
    01:00 0°C° 0 mm 3 mps 735 mmHg 92%
    02:00 0°C° 0 mm 3 mps 736 mmHg 93%
    03:00 0°C° 0 mm 3 mps 736 mmHg 94%
    04:00 -1°C° 0 mm 4 mps 736 mmHg 93%
    05:00 -1°C° 0 mm 4 mps 736 mmHg 93%
    06:00 -1°C° 0 mm 4 mps 736 mmHg 93%
    07:00 0°C° 0 mm 5 mps 736 mmHg 90%
    08:00 +1°C° 0 mm 6 mps 735 mmHg 87%
    09:00 0°C° 0 mm 7 mps 735 mmHg 85%
    10:00 +1°C° 0.3 mm 8 mps 734 mmHg 82%
    11:00 +2°C° 0.3 mm 8 mps 734 mmHg 80%
    12:00 +3°C° 0.3 mm 9 mps 733 mmHg 77%
    13:00 +5°C° 0.7 mm 9 mps 732 mmHg 79%
    14:00 +5°C° 0.7 mm 9 mps 731 mmHg 80%
    15:00 +6°C° 0.7 mm 9 mps 731 mmHg 81%
    16:00 +6°C° 0.7 mm 9 mps 731 mmHg 79%
    17:00 +6°C° 0.7 mm 9 mps 731 mmHg 77%
    18:00 +6°C° 0.7 mm 9 mps 731 mmHg 75%
    19:00 +5°C° 0 mm 8 mps 731 mmHg 75%
    20:00 +4°C° 0 mm 8 mps 732 mmHg 75%
    21:00 +2°C° 0 mm 8 mps 732 mmHg 76%
    22:00 +2°C° 0 mm 8 mps 733 mmHg 76%
    23:00 +2°C° 0 mm 8 mps 733 mmHg 77%

    28 October, Sunday

    Time Temperature Precipitation Wind Pressure Humidity
    00:00 +2°C° 0 mm 8 mps 734 mmHg 78%
    01:00 +1°C° 0 mm 8 mps 735 mmHg 78%
    02:00 0°C° 0 mm 8 mps 736 mmHg 78%
    03:00 0°C° 0 mm 8 mps 737 mmHg 78%
    04:00 -1°C° 0 mm 7 mps 738 mmHg 79%
    05:00 -1°C° 0 mm 7 mps 738 mmHg 80%
    06:00 -2°C° 0 mm 6 mps 739 mmHg 80%
    07:00 -2°C° 0 mm 6 mps 740 mmHg 80%
    08:00 -2°C° 0 mm 6 mps 741 mmHg 79%
    09:00 -2°C° 0 mm 6 mps 742 mmHg 79%
    10:00 0°C° 0 mm 5 mps 743 mmHg 75%
    11:00 +1°C° 0 mm 5 mps 744 mmHg 72%
    12:00 +2°C° 0 mm 5 mps 744 mmHg 68%
    13:00 +3°C° 0 mm 4 mps 745 mmHg 67%
    14:00 +3°C° 0 mm 4 mps 745 mmHg 65%
    15:00 +4°C° 0 mm 4 mps 746 mmHg 64%
    16:00 +3°C° 0 mm 3 mps 746 mmHg 68%
    17:00 +2°C° 0 mm 3 mps 747 mmHg 73%
    18:00 +2°C° 0 mm 2 mps 748 mmHg 77%
    19:00 +2°C° 0 mm 2 mps 748 mmHg 79%
    20:00 +1°C° 0 mm 2 mps 749 mmHg 81%
    21:00 +2°C° 0 mm 1 mps 749 mmHg 82%
    22:00 +2°C° 0 mm 1 mps 749 mmHg 83%
    23:00 +2°C° 0 mm 1 mps 750 mmHg 83%

    29 October, Monday

    Time Temperature Precipitation Wind Pressure Humidity
    00:00 +2°C° 0 mm 1 mps 750 mmHg 84%
    01:00 +2°C° 0 mm 1 mps 750 mmHg 83%
    02:00 +2°C° 0 mm 1 mps 751 mmHg 82%
    03:00 +2°C° 0 mm 1 mps 751 mmHg 82%
    04:00 +2°C° 0.1 mm 1 mps 751 mmHg 82%
    05:00 +1°C° 0.1 mm 2 mps 751 mmHg 82%
    06:00 +1°C° 0.1 mm 2 mps 751 mmHg 82%
    07:00 +1°C° 0.3 mm 2 mps 751 mmHg 82%
    08:00 +2°C° 0.3 mm 2 mps 752 mmHg 83%
    09:00 +2°C° 0.3 mm 2 mps 752 mmHg 83%
    10:00 +1°C° 0.3 mm 3 mps 752 mmHg 85%
    11:00 +1°C° 0.3 mm 3 mps 751 mmHg 86%
    12:00 0°C° 0.3 mm 4 mps 751 mmHg 87%
    13:00 0°C° 0.2 mm 4 mps 751 mmHg 88%
    14:00 0°C° 0.2 mm 4 mps 751 mmHg 89%
    15:00 0°C° 0.2 mm 5 mps 750 mmHg 89%
    16:00 0°C° 0.2 mm 5 mps 750 mmHg 90%
    17:00 -1°C° 0.2 mm 6 mps 750 mmHg 90%
    18:00 -1°C° 0.2 mm 6 mps 750 mmHg 91%
    19:00 -1°C° 0.1 mm 6 mps 749 mmHg 91%
    20:00 -1°C° 0.1 mm 6 mps 749 mmHg 91%
    21:00 -1°C° 0.1 mm 6 mps 749 mmHg 92%
    22:00 -1°C° 0.1 mm 6 mps 749 mmHg 92%
    23:00 0°C° 0.1 mm 5 mps 748 mmHg 93%

    30 October, Tuesday

    Time Temperature Precipitation Wind Pressure Humidity
    00:00 0°C° 0.1 mm 5 mps 748 mmHg 94%
    01:00 0°C° 0.1 mm 5 mps 748 mmHg 94%
    02:00 +1°C° 0.1 mm 5 mps 747 mmHg 94%
    03:00 +1°C° 0.1 mm 5 mps 747 mmHg 95%
    04:00 +1°C° 0 mm 5 mps 747 mmHg 95%
    05:00 +1°C° 0 mm 5 mps 747 mmHg 96%
    06:00 +1°C° 0 mm 5 mps 747 mmHg 96%
    07:00 +2°C° 0 mm 5 mps 747 mmHg 95%
    08:00 +2°C° 0 mm 5 mps 747 mmHg 95%
    09:00 +2°C° 0 mm 5 mps 747 mmHg 94%
    10:00 +2°C° 0 mm 5 mps 747 mmHg 93%
    11:00 +3°C° 0 mm 5 mps 747 mmHg 92%
    12:00 +3°C° 0 mm 5 mps 747 mmHg 91%
    13:00 +3°C° 0 mm 5 mps 747 mmHg 90%
    14:00 +3°C° 0 mm 5 mps 747 mmHg 90%
    15:00 +5°C° 0 mm 5 mps 748 mmHg 89%
    16:00 +3°C° 0 mm 5 mps 748 mmHg 89%
    17:00 +3°C° 0 mm 6 mps 748 mmHg 90%
    18:00 +3°C° 0 mm 6 mps 749 mmHg 90%
    19:00 +2°C° 0 mm 6 mps 749 mmHg 90%
    20:00 +2°C° 0 mm 6 mps 749 mmHg 90%
    21:00 +2°C° 0 mm 6 mps 750 mmHg 89%
    22:00 +2°C° 0 mm 6 mps 750 mmHg 89%
    23:00 +2°C° 0 mm 6 mps 750 mmHg 89%
    Show more